This is the latest recevied weather packets stored in our database for station/object WA0LM. If no packets are shown the sender has not sent any weather packets the latest 10 day(s).
| Time | Temp. | Humidity | Pressure | Rain* | Wind** | Luminosity | Snow |
|---|---|---|---|---|---|---|---|
| 1777986095 | 0.56° C | 73% | 1008.4 hPa | 0 mm | - | 85 W/m² | - |
| 1777985791 | 0.56° C | 73% | 1008.4 hPa | 0 mm | - | 85 W/m² | - |
| 1777985488 | 0.56° C | 73% | 1008.3 hPa | 0 mm | - | 85 W/m² | - |
| 1777985185 | 0.56° C | 73% | 1008.2 hPa | 0 mm | - | 79 W/m² | - |
| 1777984881 | 0.56° C | 73% | 1008.1 hPa | 0 mm | - | 79 W/m² | - |
| 1777984577 | 0.56° C | 74% | 1008 hPa | 0 mm | - | 76 W/m² | - |
| 1777984274 | 0.56° C | 73% | 1007.9 hPa | 0 mm | - | 75 W/m² | - |
| 1777983971 | 0° C | 75% | 1007.9 hPa | 0 mm | - | 71 W/m² | - |
| 1777983668 | 0° C | 72% | 1007.9 hPa | 0 mm | - | 68 W/m² | - |
| 1777983364 | 0° C | 73% | 1007.8 hPa | 0 mm | - | 63 W/m² | - |
| 1777983061 | 0° C | 72% | 1007.7 hPa | 0 mm | - | 55 W/m² | - |
| 1777982757 | 0° C | 72% | 1007.7 hPa | 0 mm | - | 39 W/m² | - |
| 1777982453 | 0° C | 73% | 1007.7 hPa | 0 mm | - | 29 W/m² | - |
| 1777982148 | 0° C | 72% | 1007.8 hPa | 0 mm | - | 26 W/m² | - |
| 1777981846 | 0° C | 76% | 1007.5 hPa | 0 mm | - | 24 W/m² | - |
| 1777981542 | 0° C | 73% | 1007.7 hPa | 0 mm | - | 24 W/m² | - |
| 1777981239 | 0° C | 73% | 1007.4 hPa | 0 mm | - | 22 W/m² | - |
| 1777980935 | 0° C | 72% | 1007.3 hPa | 0 mm | - | 18 W/m² | - |
| 1777980632 | 0° C | 73% | 1007.2 hPa | 0 mm | - | 15 W/m² | - |
| 1777980328 | 0° C | 69% | 1007.3 hPa | 0 mm | - | 13 W/m² | - |
| 1777980026 | 0° C | 71% | 1007.1 hPa | 0 mm | - | 11 W/m² | - |
| 1777979720 | 0° C | 68% | 1007 hPa | 0 mm | - | 9 W/m² | - |
| 1777979417 | 0.56° C | 70% | 1007.2 hPa | 0 mm | - | 7 W/m² | - |
| 1777979114 | 0° C | 69% | 1006.9 hPa | 0 mm | - | 5 W/m² | - |
| 1777978810 | 0.56° C | 69% | 1007.2 hPa | 0 mm | - | 3 W/m² | - |
* Rain latest hour (hover to see other rain measurements)
** Current wind speed in m/s (hover to see current wind gust speed)